Stations météo

réclame
Mon MeteoGroup
Edinburgh/Gogarbank, Grande-Bretagne (3166): Température de l'air & dewpoint: 11.07.2018 12:00:00 - 17.07.2018 12:00:00 (BST)Edinburgh/Gogarbank, Grande-Bretagne (3166): Température de l'air -20cm & Température de l'air -100cm: 11.07.2018 12:00:00 - 17.07.2018 12:00:00 (BST)Edinburgh/Gogarbank, Grande-Bretagne (3166): Vitesse du vent: 11.07.2018 12:00:00 - 17.07.2018 12:00:00 (BST)Edinburgh/Gogarbank, Grande-Bretagne (3166): Direction du vent: 11.07.2018 12:00:00 - 17.07.2018 12:00:00 (BST)Edinburgh/Gogarbank, Grande-Bretagne (3166): reduced air pressure: 11.07.2018 12:00:00 - 17.07.2018 12:00:00 (BST)Edinburgh/Gogarbank, Grande-Bretagne (3166): visibility: 11.07.2018 12:00:00 - 17.07.2018 12:00:00 (BST)Edinburgh/Gogarbank, Grande-Bretagne (3166): Ensoleillement: 11.07.2018 12:00:00 - 17.07.2018 12:00:00 (BST)Edinburgh/Gogarbank, Grande-Bretagne (3166): Quantités de précipitations: 11.07.2018 12:00:00 - 17.07.2018 12:00:00 (BST)
Date & Time tt [°C] td [°C] tt -20cm [°C] tt -100cm [°C] ff [km/h] ff [knt] dd ppp [hPa] vv [km] sd [min] rr [mm]
17.07.2018 12:00:00 16,9 10,3 - - 11 6 WSW 1012,8 35 0 0,0
17.07.2018 11:00:00 15,2 10,6 - - 16 9 W 1012,9 40 6 0,0
17.07.2018 10:00:00 16,2 11,2 17,0 15,2 13 7 WSW 1012,4 30 0 0,0
17.07.2018 09:00:00 15,2 11,7 - - 13 7 W 1012,5 30 6 0,0
17.07.2018 08:00:00 14,0 12,1 - - 9 5 SW 1012,4 27 0 0,0
17.07.2018 07:00:00 13,1 12,5 - - 9 5 SW 1012,3 18 0 0,4
17.07.2018 06:00:00 12,7 11,5 - - 13 7 SW 1012,2 8 0 0,0
17.07.2018 05:00:00 11,9 10,2 - - 11 6 SSW 1012,0 26 0 0,0
17.07.2018 04:00:00 11,7 9,6 - - 11 6 SSW 1012,1 25 0 0,0
17.07.2018 03:00:00 11,4 9,1 - - 5 3 SSW 1012,4 35 0 0,0
17.07.2018 02:00:00 12,9 9,7 - - 11 6 SSW 1012,4 30 0 0,0
17.07.2018 01:00:00 14,3 9,8 - - 5 3 WSW 1012,7 30 - 0,0
17.07.2018 00:00:00 15,4 9,6 - - 8 4 W 1012,5 35 0 0,0
16.07.2018 23:00:00 16,3 9,8 - - 11 6 W 1012,4 35 0 0,0
16.07.2018 22:00:00 17,2 9,9 - - 11 6 WNW 1012,1 45 18 0,0
16.07.2018 21:00:00 18,5 8,7 - - 11 6 W 1011,7 45 0 0,0
16.07.2018 20:00:00 19,3 9,4 - - 11 6 WNW 1011,4 40 12 0,0
16.07.2018 19:00:00 20,3 8,2 - - 13 7 W 1011,1 45 12 0,0
16.07.2018 18:00:00 20,4 7,5 - - 13 7 W 1011,1 35 24 0,0
16.07.2018 17:00:00 20,5 8,6 - - 15 8 W 1011,2 40 18 0,0
16.07.2018 16:00:00 20,2 9,5 - - 15 8 W 1011,3 35 24 0,0
16.07.2018 15:00:00 21,1 9,6 - - 15 8 W 1011,3 35 42 0,0
16.07.2018 14:00:00 20,2 9,4 - - 21 11 W 1011,5 30 30 0,0
16.07.2018 13:00:00 20,1 10,5 - - 18 10 SW 1011,6 35 42 0,0
16.07.2018 12:00:00 17,3 11,5 - - 15 8 W 1011,9 45 0 0,0
16.07.2018 11:00:00 16,4 12,1 - - 13 7 WSW 1011,7 40 0 0,0
16.07.2018 10:00:00 16,6 12,7 17,2 15,2 16 9 WSW 1011,5 45 0 0,0
16.07.2018 09:00:00 15,6 13,7 - - 15 8 WSW 1011,2 45 0 0,0
16.07.2018 08:00:00 15,6 14,2 - - 13 7 WSW 1010,9 40 0 0,0
16.07.2018 07:00:00 16,4 14,8 - - 15 8 W 1010,4 30 0 0,0
16.07.2018 06:00:00 16,9 15,9 - - 5 3 SW 1010,3 45 0 0,2
16.07.2018 05:00:00 16,2 15,6 - - 2 1 WNW 1010,3 15 0 0,6
16.07.2018 04:00:00 17,0 15,1 - - 4 2 ESE 1010,6 30 0 0,0
16.07.2018 03:00:00 17,5 15,0 - - 5 3 SW 1010,8 60 0 0,0
16.07.2018 02:00:00 17,4 14,9 - - 5 3 SW 1011,2 60 0 0,0
16.07.2018 01:00:00 17,5 14,8 - - 5 3 SW 1011,1 45 - 0,0
16.07.2018 00:00:00 17,4 14,8 - - 15 8 SW 1011,3 40 0 0,0
15.07.2018 23:00:00 17,5 14,8 - - 9 5 SSW 1011,7 25 0 0,0
15.07.2018 22:00:00 17,4 14,9 - - 9 5 SW 1011,7 30 0 0,0
15.07.2018 21:00:00 17,7 15,2 - - 16 9 SW 1011,8 40 0 0,0
15.07.2018 20:00:00 17,4 15,6 - - 8 4 SW 1011,9 15 0 0,2
15.07.2018 19:00:00 17,8 15,7 - - 8 4 SSW 1012,2 9 0 0,0
15.07.2018 18:00:00 18,9 15,5 - - 13 7 SSW 1012,3 18 0 0,0
15.07.2018 17:00:00 18,6 16,4 - - 8 4 SSW 1012,5 13 0 0,4
15.07.2018 16:00:00 18,7 15,5 - - 11 6 SW 1012,7 20 0 0,0
15.07.2018 15:00:00 20,4 15,2 - - 13 7 SW 1012,5 23 0 0,0
15.07.2018 14:00:00 20,4 14,6 - - 16 9 SW 1012,7 14 0 0,0
15.07.2018 13:00:00 20,8 15,2 - - 11 6 SW 1012,9 19 0 0,0
15.07.2018 12:00:00 20,7 15,0 - - 13 7 SSW 1013,0 21 18 0,0
15.07.2018 11:00:00 20,3 14,3 - - 16 9 SW 1013,1 21 30 0,0
15.07.2018 10:00:00 21,0 14,4 17,0 15,2 15 8 SSW 1013,2 21 48 0,0
15.07.2018 09:00:00 19,2 14,6 - - 15 8 SSW 1013,2 23 0 0,0
15.07.2018 08:00:00 18,3 14,5 - - 11 6 SSW 1013,3 23 0 0,0
15.07.2018 07:00:00 17,5 13,6 - - 5 3 S 1013,1 27 0 0,0
15.07.2018 06:00:00 17,4 13,1 - - 11 6 SW 1013,1 27 0 0,0
15.07.2018 05:00:00 16,8 12,9 - - 11 6 WSW 1013,2 30 0 0,0
15.07.2018 04:00:00 16,7 12,7 - - 11 6 WSW 1013,6 35 0 0,0
15.07.2018 03:00:00 13,1 10,9 - - 4 2 N 1013,8 27 0 0,0
15.07.2018 02:00:00 14,4 10,9 - - 5 3 W 1014,0 30 0 0,0
15.07.2018 01:00:00 16,6 11,2 - - 8 4 SW 1014,2 30 - 0,0
15.07.2018 00:00:00 16,9 11,7 - - 13 7 WSW 1014,7 30 0 0,0
14.07.2018 23:00:00 17,9 12,1 - - 13 7 SW 1014,8 30 0 0,0
14.07.2018 22:00:00 18,7 12,8 - - 16 9 SSW 1014,7 30 0 0,0
14.07.2018 21:00:00 20,4 11,4 - - 15 8 SW 1014,6 35 36 0,0
14.07.2018 20:00:00 22,0 12,7 - - 21 11 SW 1014,6 28 54 0,0
14.07.2018 19:00:00 22,8 13,0 - - 24 13 SSW 1014,5 29 42 0,0
14.07.2018 18:00:00 23,8 12,1 - - 24 13 SW 1014,5 30 24 0,0
14.07.2018 17:00:00 24,4 13,2 - - 18 10 SW 1014,6 30 54 0,0
14.07.2018 16:00:00 23,2 13,3 - - 24 13 SW 1015,0 30 48 0,0
14.07.2018 15:00:00 23,5 13,0 - - 21 11 SW 1015,6 30 36 0,0
14.07.2018 14:00:00 22,3 12,4 - - 18 10 SW 1016,3 30 30 0,0
14.07.2018 13:00:00 22,0 12,5 - - 18 10 SW 1016,6 35 18 0,0
14.07.2018 12:00:00 21,2 12,7 - - 16 9 W 1016,8 30 12 0,0
14.07.2018 11:00:00 20,4 12,5 - - 18 10 SW 1017,1 30 54 0,0
14.07.2018 10:00:00 19,7 12,6 16,9 15,2 18 10 SW 1017,5 30 60 0,0
14.07.2018 09:00:00 18,7 12,4 - - 15 8 WSW 1017,9 30 60 0,0
14.07.2018 08:00:00 17,3 12,3 - - 13 7 SW 1018,2 35 60 0,0
14.07.2018 07:00:00 14,8 12,6 - - 5 3 SSW 1018,4 28 60 0,0
14.07.2018 06:00:00 11,1 10,5 - - 4 2 NW 1018,9 19 6 0,0
14.07.2018 05:00:00 9,9 9,2 - - 4 2 WSW 1018,9 10 0 0,0
14.07.2018 04:00:00 11,5 10,1 - - 4 2 SW 1019,4 15 0 0,0
14.07.2018 03:00:00 14,0 11,8 - - 11 6 SSW 1019,3 35 0 0,0
14.07.2018 02:00:00 14,6 12,6 - - 8 4 WSW 1019,5 26 0 0,0
14.07.2018 01:00:00 15,2 13,1 - - 8 4 WSW 1019,7 24 - 0,0
14.07.2018 00:00:00 16,2 13,2 - - 11 6 SW 1019,8 25 0 0,0
13.07.2018 23:00:00 16,8 13,6 - - 11 6 SW 1019,8 25 0 0,0
13.07.2018 22:00:00 17,5 15,0 - - 9 5 SSW 1019,7 18 0 0,0
13.07.2018 21:00:00 18,2 15,1 - - 8 4 SSW 1019,5 23 0 0,0
13.07.2018 20:00:00 18,2 15,0 - - 9 5 SW 1019,7 27 0 0,0
13.07.2018 19:00:00 19,1 15,7 - - 8 4 WSW 1019,8 24 0 0,0
13.07.2018 18:00:00 19,0 14,6 - - 9 5 SW 1020,0 27 0 0,0
13.07.2018 17:00:00 19,0 15,6 - - 5 3 SE 1020,4 22 0 0,0
13.07.2018 16:00:00 18,3 15,9 - - 5 3 SSE 1020,8 14 0 0,0
13.07.2018 15:00:00 18,1 15,1 - - 5 3 SE 1021,1 19 0 0,2
13.07.2018 14:00:00 17,2 15,0 - - 4 2 E 1021,4 10 0 0,2
13.07.2018 13:00:00 18,1 13,4 - - 11 6 NNE 1021,5 29 6 0,0
13.07.2018 12:00:00 19,3 13,8 - - 11 6 N 1021,5 27 30 0,0
13.07.2018 11:00:00 19,6 13,0 - - 5 3 E 1021,7 24 42 0,0
13.07.2018 10:00:00 17,0 13,4 16,9 15,2 8 4 NNW 1022,2 25 0 0,0
13.07.2018 09:00:00 16,3 12,9 - - 2 1 NW 1022,3 25 0 0,0
13.07.2018 08:00:00 15,6 12,6 - - 2 1 NNE 1022,4 29 0 0,0
13.07.2018 07:00:00 14,7 12,8 - - 4 2 N 1022,5 23 0 0,0
13.07.2018 06:00:00 14,5 12,3 - - 2 1 E 1022,6 29 0 0,0
13.07.2018 05:00:00 14,4 12,1 - - 8 4 E 1022,6 29 0 0,0
13.07.2018 04:00:00 14,3 12,4 - - 5 3 ENE 1022,8 30 0 0,0
13.07.2018 03:00:00 13,9 12,2 - - 5 3 N 1022,8 26 0 0,0
13.07.2018 02:00:00 14,4 12,2 - - 5 3 NE 1023,0 16 0 0,0
13.07.2018 01:00:00 14,6 12,1 - - 5 3 ENE 1023,2 17 - 0,0
13.07.2018 00:00:00 14,7 12,3 - - 8 4 E 1023,3 29 0 0,0
12.07.2018 23:00:00 14,2 12,2 - - 11 6 ENE 1023,4 27 0 0,0
12.07.2018 22:00:00 15,2 11,8 - - 11 6 ENE 1023,0 40 36 0,0
12.07.2018 21:00:00 16,5 12,2 - - 13 7 ENE 1022,7 40 24 0,0
12.07.2018 20:00:00 17,0 12,2 - - 15 8 ENE 1022,5 40 0 0,0
12.07.2018 19:00:00 17,0 12,7 - - 11 6 ENE 1022,6 40 0 0,0
12.07.2018 18:00:00 17,6 12,6 - - 11 6 NE 1022,6 45 0 0,0
12.07.2018 17:00:00 18,0 12,8 - - 13 7 ENE 1022,8 40 0 0,0
12.07.2018 16:00:00 17,8 13,1 - - 13 7 NE 1023,1 40 0 0,0
12.07.2018 15:00:00 18,4 13,3 - - 15 8 ENE 1023,0 35 0 0,0
12.07.2018 14:00:00 18,1 13,5 - - 13 7 ENE 1023,3 35 0 0,0
12.07.2018 13:00:00 17,7 13,4 - - 11 6 NE 1023,4 35 0 0,0
12.07.2018 12:00:00 17,1 13,4 - - 13 7 E 1023,4 30 0 0,0
12.07.2018 11:00:00 16,7 12,7 - - 11 6 NNE 1023,4 30 0 0,0
12.07.2018 10:00:00 17,2 11,8 17,0 15,0 9 5 ESE 1023,3 29 0 0,0
12.07.2018 09:00:00 16,8 11,0 - - 8 4 E 1023,2 35 0 0,0
12.07.2018 08:00:00 17,5 10,8 - - 8 4 ENE 1023,2 30 48 0,0
12.07.2018 07:00:00 13,7 11,6 - - 2 1 WNW 1023,1 24 36 0,0
12.07.2018 06:00:00 11,7 10,7 - - 4 2 S 1023,1 27 18 0,0
12.07.2018 05:00:00 10,6 9,6 - - 2 1 SW 1023,3 22 0 0,0
12.07.2018 04:00:00 11,1 9,3 - - 4 2 E 1023,3 27 0 0,0
12.07.2018 03:00:00 11,9 10,6 - - 4 2 S 1023,4 35 0 0,0
12.07.2018 02:00:00 12,0 10,4 - - 4 2 S 1023,5 28 0 0,0
12.07.2018 01:00:00 13,5 10,9 - - 8 4 E 1023,4 30 - 0,0
12.07.2018 00:00:00 14,3 11,0 - - 9 5 E 1023,6 35 0 0,0
11.07.2018 23:00:00 14,8 11,3 - - 13 7 E 1023,5 35 0 0,0
11.07.2018 22:00:00 15,7 11,6 - - 11 6 ENE 1023,2 40 0 0,0
11.07.2018 21:00:00 16,9 11,9 - - 11 6 NE 1022,8 35 0 0,0
11.07.2018 20:00:00 18,9 12,3 - - 13 7 ENE 1022,5 35 60 0,0
11.07.2018 19:00:00 19,5 11,4 - - 13 7 ENE 1022,5 35 60 0,0
11.07.2018 18:00:00 19,8 11,8 - - 15 8 E 1022,4 40 54 0,0
11.07.2018 17:00:00 18,4 11,8 - - 15 8 ENE 1022,8 35 0 0,0
11.07.2018 16:00:00 19,3 11,3 - - 15 8 ENE 1022,9 35 54 0,0
11.07.2018 15:00:00 20,2 12,5 - - 13 7 E 1022,9 35 30 0,0
11.07.2018 14:00:00 19,4 12,4 - - 15 8 ENE 1023,1 30 24 0,0
11.07.2018 13:00:00 19,8 12,8 - - 11 6 ENE 1023,3 30 60 0,0
11.07.2018 12:00:00 19,2 12,3 - - 13 7 NE 1023,4 30 18 0,0

tt = Température de l'air
td = dewpoint
tt -20cm = Température de l'air -20cm
tt -100cm = Température de l'air -100cm
ff = Vitesse du vent
dd = Direction du vent
ppp = reduced air pressure
vv = visibility
sd = Ensoleillement
rr = Quantités de précipitations

stations d'obs. à proximité